Location: ??????
(56.0120°N, 39.1740°E)
Time: 15:49:37
(UTC+00:00)

CZ-2C R/B - Pass Details

Date: 14 April 2026
Orbit: 702 x 901 km, 98.2° (Epoch: 17 May)

Event Time Altitude Azimuth Distance (km) Brightness Sun altitude
Rises 21:29:03 0° 16° (NNE) 3,184 7.5 -24.3°
Reaches altitude 10° 21:31:18 10° 19° (NNE) 2,280 6.4 -24.3°
Maximum altitude 21:36:19 73° 104° (ESE) 818 3.0 -24.3°
Enters shadow 21:36:55 65° 152° (SSE) 860 2.9 -24.3°
